Total_Precipitation_Accumulation
0.00 0.00 0.00 0.00 0.00 0.00 0.00 0.00 0.00 0.00 0.00 0.00 0.00 0.01 0.01 0.00 0.01 0.09 0.01 0.02 0.00 0.00 0.02 0.01 0.00 0.01 0.00 0.00 0.00 0.00 0.00 0.02 0.01 0.03 0.01 0.04 0.16 0.02 0.00 0.03 0.01 0.02 0.02 0.01 0.01 0.01 0.00 0.01 0.00
0.00 0.00 0.00 0.01 0.00 0.00 0.00 0.00 0.00 0.00 0.00 0.00 0.03 0.02 0.01 0.03 0.01 0.02 0.02 0.01 0.01 0.01 0.02 0.01 0.01 0.00 0.00 0.00 0.00 0.00 0.00 0.03 0.02 0.05 0.06 0.11 0.14 0.01 0.01 0.02 0.00 0.02 0.02 0.01 0.00 0.00 0.00 0.00 0.00
0.00 0.00 0.01 0.01 0.00 0.00 0.00 0.00 0.00 0.00 0.00 0.00 0.04 0.06 0.03 0.03 0.03 0.02 0.02 0.01 0.02 0.03 0.03 0.02 0.01 0.00 0.00 0.00 0.00 0.01 0.01 0.05 0.10 0.13 0.16 0.24 0.16 0.00 0.02 0.00 0.01 0.01 0.01 0.01 0.01 0.00 0.00 0.00 0.00
0.00 0.01 0.01 0.01 0.00 0.00 0.00 0.00 0.00 0.00 0.00 0.00 0.01 0.06 0.04 0.05 0.04 0.07 0.03 0.01 0.03 0.05 0.05 0.02 0.02 0.00 0.00 0.01 0.00 0.01 0.01 0.03 0.14 0.21 0.27 0.27 0.09 0.01 0.01 0.00 0.01 0.01 0.02 0.02 0.00 0.00 0.00 0.00 0.00
0.01 0.01 0.00 0.00 0.00 0.00 0.00 0.00 0.00 0.00 0.00 0.00 0.00 0.02 0.04 0.03 0.08 0.16 0.10 0.04 0.02 0.04 0.07 0.02 0.05 0.01 0.01 0.01 0.00 0.03 0.03 0.04 0.13 0.20 0.17 0.10 0.04 0.01 0.01 0.01 0.01 0.02 0.02 0.01 0.00 0.00 0.00 0.00 0.00
0.01 0.01 0.00 0.00 0.00 0.00 0.00 0.00 0.00 0.00 0.00 0.00 0.01 0.00 0.03 0.01 0.07 0.26 0.32 0.19 0.07 0.08 0.15 0.09 0.09 0.05 0.00 0.01 0.01 0.04 0.04 0.04 0.11 0.17 0.17 0.10 0.03 0.01 0.01 0.01 0.01 0.03 0.02 0.01 0.00 0.00 0.00 0.00 0.00
0.01 0.01 0.00 0.00 0.00 0.00 0.00 0.00 0.00 0.00 0.00 0.02 0.00 0.00 0.00 0.01 0.03 0.27 0.45 0.43 0.33 0.37 0.36 0.35 0.16 0.11 0.01 0.00 0.01 0.07 0.06 0.05 0.10 0.16 0.17 0.07 0.02 0.01 0.01 0.01 0.02 0.03 0.02 0.01 0.00 0.00 0.00 0.00 0.00
0.01 0.02 0.00 0.00 0.00 0.00 0.00 0.00 0.00 0.00 0.00 0.00 0.01 0.02 0.00 0.01 0.02 0.27 0.80 0.85 0.76 0.94 0.67 0.52 0.28 0.12 0.05 0.01 0.01 0.07 0.08 0.02 0.06 0.11 0.05 0.01 0.00 0.01 0.01 0.01 0.02 0.02 0.02 0.01 0.00 0.00 0.00 0.00 0.00
0.02 0.04 0.00 0.00 0.00 0.00 0.00 0.00 0.00 0.01 0.00 0.00 0.00 0.00 0.00 0.00 0.04 0.20 1.19 1.88 1.60 1.36 1.22 0.95 0.73 0.24 0.10 0.06 0.02 0.04 0.12 0.05 0.04 0.06 0.02 0.01 0.00 0.00 0.00 0.00 0.01 0.02 0.02 0.00 0.00 0.00 0.00 0.00 0.00
0.02 0.01 0.00 0.00 0.00 0.00 0.00 0.00 0.00 0.01 0.00 0.00 0.03 0.03 0.01 0.02 0.04 0.09 0.63 2.66 2.14 1.57 1.39 1.27 1.04 0.53 0.20 0.07 0.08 0.09 0.15 0.09 0.03 0.04 0.02 0.00 0.00 0.00 0.00 0.00 0.01 0.02 0.01 0.00 0.00 0.00 0.00 0.00 0.00
0.00 0.01 0.00 0.00 0.00 0.00 0.01 0.00 0.00 0.01 0.00 0.00 0.00 0.03 0.11 0.16 0.13 0.12 0.39 1.94 2.42 1.45 1.01 0.98 1.02 0.93 0.46 0.12 0.07 0.10 0.25 0.12 0.10 0.03 0.01 0.01 0.00 0.00 0.00 0.00 0.00 0.01 0.00 0.00 0.00 0.00 0.00 0.00 0.00
0.00 0.00 0.00 0.00 0.00 0.01 0.01 0.01 0.03 0.01 0.01 0.00 0.01 0.13 0.18 0.24 0.20 0.21 0.37 0.63 1.26 1.68 0.85 0.61 0.77 0.66 0.51 0.25 0.05 0.03 0.17 0.14 0.07 0.06 0.01 0.00 0.00 0.00 0.00 0.00 0.00 0.00 0.00 0.00 0.00 0.00 0.00 0.00 0.00
0.00 0.00 0.00 0.00 0.00 0.01 0.04 0.03 0.05 0.02 0.01 0.00 0.07 0.17 0.24 0.33 0.33 0.17 0.20 0.23 0.60 1.26 1.39 1.02 0.89 1.17 0.46 0.35 0.08 0.04 0.04 0.26 0.04 0.07 0.02 0.00 0.00 0.00 0.00 0.00 0.00 0.00 0.00 0.00 0.00 0.00 0.00 0.00 0.00
0.01 0.01 0.00 0.02 0.01 0.01 0.02 0.01 0.06 0.03 0.03 0.01 0.05 0.14 0.21 0.24 0.19 0.29 0.18 0.12 0.17 0.63 1.50 2.13 1.27 0.99 1.06 0.77 0.27 0.07 0.02 0.08 0.10 0.02 0.03 0.00 0.00 0.00 0.00 0.00 0.00 0.00 0.00 0.00 0.00 0.00 0.00 0.00 0.00
0.01 0.02 0.03 0.01 0.01 0.03 0.06 0.03 0.02 0.00 0.01 0.01 0.03 0.08 0.25 0.20 0.21 0.25 0.43 0.20 0.12 0.23 1.01 1.65 1.62 0.90 0.91 0.95 0.65 0.17 0.04 0.01 0.02 0.00 0.00 0.00 0.00 0.00 0.00 0.00 0.00 0.00 0.00 0.00 0.00 0.00 0.00 0.00 0.00
0.09 0.17 0.12 0.01 0.02 0.03 0.13 0.03 0.00 0.02 0.03 0.02 0.05 0.12 0.20 0.17 0.15 0.18 0.13 0.19 0.24 0.23 0.52 0.82 0.68 0.79 0.48 0.82 0.74 0.45 0.13 0.02 0.00 0.00 0.00 0.00 0.00 0.00 0.00 0.00 0.00 0.00 0.00 0.00 0.00 0.00 0.00 0.00 0.00
0.05 0.14 0.21 0.15 0.02 0.05 0.08 0.04 0.05 0.08 0.04 0.04 0.04 0.14 0.20 0.23 0.21 0.25 0.14 0.09 0.08 0.15 0.16 0.23 0.31 0.26 0.38 0.38 0.72 0.56 0.34 0.14 0.02 0.00 0.00 0.00 0.00 0.00 0.00 0.00 0.00 0.00 0.00 0.00 0.00 0.00 0.00 0.00 0.00
0.08 0.08 0.10 0.18 0.09 0.06 0.07 0.03 0.21 0.25 0.14 0.02 0.04 0.06 0.16 0.29 0.40 0.37 0.23 0.27 0.14 0.13 0.12 0.13 0.15 0.14 0.16 0.26 0.39 0.59 0.45 0.30 0.12 0.02 0.00 0.00 0.00 0.00 0.00 0.00 0.00 0.00 0.00 0.00 0.00 0.00 0.00 0.00 0.00
0.06 0.08 0.10 0.20 0.25 0.03 0.03 0.06 0.15 0.32 0.42 0.10 0.07 0.09 0.14 0.37 0.56 0.65 0.52 0.36 0.39 0.28 0.18 0.11 0.11 0.07 0.08 0.19 0.29 0.26 0.28 0.36 0.29 0.12 0.08 0.04 0.01 0.01 0.01 0.01 0.00 0.00 0.00 0.00 0.00 0.00 0.00 0.00 0.00
0.05 0.08 0.11 0.11 0.18 0.06 0.02 0.05 0.16 0.16 0.26 0.18 0.07 0.05 0.17 0.35 0.63 1.42 1.01 0.64 0.51 0.63 0.31 0.20 0.15 0.11 0.11 0.21 0.55 0.57 0.27 0.12 0.24 0.21 0.11 0.11 0.13 0.09 0.08 0.07 0.04 0.02 0.00 0.00 0.02 0.04 0.06 0.05 0.05
0.06 0.04 0.08 0.18 0.13 0.07 0.07 0.16 0.24 0.20 0.15 0.10 0.06 0.05 0.11 0.23 0.39 1.31 1.52 1.05 0.83 1.00 0.53 0.37 0.23 0.21 0.20 0.21 0.26 0.40 0.48 0.53 0.27 0.15 0.16 0.09 0.16 0.13 0.13 0.15 0.19 0.14 0.11 0.13 0.15 0.13 0.16 0.26 0.20
0.07 0.04 0.08 0.21 0.30 0.35 0.12 0.32 0.37 0.24 0.17 0.09 0.05 0.04 0.14 0.22 0.32 0.71 1.65 1.37 1.23 1.16 0.66 0.47 0.53 0.39 0.23 0.26 0.20 0.21 0.30 0.39 0.58 0.56 0.39 0.30 0.23 0.18 0.24 0.39 0.41 0.63 0.77 0.62 0.49 0.35 0.25 0.20 0.20
0.13 0.07 0.05 0.03 0.11 0.54 0.22 0.32 0.49 0.39 0.29 0.12 0.04 0.05 0.16 0.24 0.31 0.39 0.92 1.23 1.44 1.44 0.88 0.54 0.64 0.50 0.33 0.25 0.42 0.39 0.47 0.32 0.34 0.44 0.62 0.50 0.40 0.36 0.39 0.50 0.63 0.71 0.90 0.98 0.86 0.78 0.69 0.61 0.40
0.09 0.09 0.04 0.05 0.13 0.51 0.19 0.41 0.63 0.55 0.42 0.29 0.04 0.11 0.21 0.25 0.29 0.24 0.29 0.92 1.48 1.25 1.15 0.77 0.50 0.37 0.36 0.28 0.43 0.45 0.51 0.40 0.24 0.29 0.44 0.43 0.32 0.31 0.49 0.67 0.83 0.86 0.78 0.68 0.58 0.40 0.36 0.33 0.21
0.09 0.11 0.19 0.19 0.28 0.34 0.32 0.31 0.62 0.49 0.27 0.25 0.17 0.26 0.30 0.27 0.27 0.18 0.23 0.54 1.20 0.81 0.80 0.61 0.58 0.50 0.54 0.33 0.38 0.35 0.47 0.55 0.58 0.53 0.46 0.50 0.42 0.31 0.26 0.32 0.43 0.52 0.53 0.43 0.34 0.22 0.16 0.13 0.08
0.20 0.23 0.33 0.26 0.28 0.37 0.26 0.45 0.73 0.47 0.41 0.35 0.32 0.36 0.31 0.30 0.28 0.28 0.22 0.16 0.44 0.56 0.39 0.27 0.26 0.34 0.50 0.57 0.50 0.37 0.40 0.53 0.55 0.40 0.29 0.32 0.37 0.47 0.40 0.30 0.26 0.24 0.16 0.12 0.10 0.05 0.02 0.02 0.01
0.05 0.06 0.14 0.27 0.18 0.15 0.33 0.62 0.71 0.59 0.57 0.32 0.47 0.31 0.34 0.32 0.19 0.20 0.17 0.06 0.15 0.23 0.17 0.09 0.06 0.04 0.03 0.02 0.07 0.22 0.31 0.27 0.31 0.22 0.11 0.13 0.21 0.26 0.36 0.36 0.34 0.29 0.19 0.12 0.09 0.05 0.01 0.00 0.00
0.01 0.01 0.03 0.06 0.08 0.19 0.16 0.21 0.78 0.81 0.43 0.22 0.25 0.22 0.16 0.08 0.04 0.04 0.05 0.02 0.02 0.03 0.01 0.00 0.00 0.00 0.00 0.00 0.00 0.03 0.03 0.03 0.06 0.08 0.15 0.21 0.17 0.13 0.12 0.15 0.15 0.10 0.10 0.10 0.05 0.04 0.06 0.07 0.03
0.00 0.00 0.00 0.00 0.00 0.03 0.03 0.26 0.47 0.38 0.16 0.07 0.07 0.06 0.03 0.06 0.04 0.02 0.01 0.00 0.00 0.00 0.00 0.00 0.00 0.00 0.00 0.00 0.00 0.00 0.00 0.00 0.00 0.00 0.02 0.05 0.04 0.04 0.04 0.04 0.04 0.03 0.02 0.02 0.01 0.01 0.02 0.05 0.04
0.00 0.00 0.00 0.00 0.00 0.00 0.01 0.19 0.14 0.08 0.08 0.02 0.06 0.02 0.00 0.01 0.00 0.00 0.00 0.00 0.00 0.00 0.00 0.00 0.00 0.00 0.00 0.00 0.00 0.00 0.00 0.00 0.00 0.00 0.00 0.00 0.00 0.00 0.00 0.02 0.03 0.04 0.03 0.02 0.03 0.03 0.03 0.04 0.03